User: anonymous   Login
Location: Freistadt
(48.5112°N, 14.5013°E)
Time: 10:27:17
(UTC+01:00)
Language:

P83-1 Hilat - Orbit

View from above orbital plane
View from above orbital plane
View from above satellite
View from above satellite

Ground track
Ground track

The orbit data is extracted from the following two-line orbital elements,

1 14154U 83063A   23335.91946900  .00001176  00000-0  38681-3 0  9993
2 14154  82.0231 303.1832 0039150 219.8020 197.5041 14.37217494114176
Epoch (UTC): 01 December 2023 22:04:02
Eccentricity: 0.0039150
inclination: 82.0231°
perigee height: 740 km
apogee height: 795 km
right ascension of ascending node: 303.1832°
argument of perigee: 219.8020°
revolutions per day: 14.37217494
mean anomaly at epoch: 197.5041°
orbit number at epoch: 11417

The dashed part of the orbit path shows where the satellite is in the earth's shadow,  

DLR